Time,TemperatureF,DewpointF,PressureIn,WindDirection,WindDirectionDegrees,WindSpeedMPH,WindSpeedGustMPH,Humidity,HourlyPrecipIn,Conditions,Clouds,dailyrainin,SoftwareType,DateUTC
2013-01-28 00:11:00,28.4,26.0,30.60,SSE,168,9.0,12.0,92,0.00,,,0.00,weatherlink.com 1.10,2013-01-28 05:11:00,
2013-01-28 00:26:00,28.4,27.0,30.61,SSE,163,7.0,13.0,93,0.00,,,0.00,weatherlink.com 1.10,2013-01-28 05:26:00,
2013-01-28 00:42:00,28.7,27.0,30.60,South,170,6.0,12.0,92,0.00,,,0.00,weatherlink.com 1.10,2013-01-28 05:42:00,
2013-01-28 00:57:00,28.6,27.0,30.60,SSE,162,6.0,11.0,92,0.00,,,0.00,weatherlink.com 1.10,2013-01-28 05:57:00,
2013-01-28 01:12:00,28.5,27.0,30.60,SSE,160,3.0,9.0,92,0.00,,,0.00,weatherlink.com 1.10,2013-01-28 06:12:00,
2013-01-28 01:27:00,28.7,27.0,30.61,SE,142,7.0,8.0,92,0.00,,,0.00,weatherlink.com 1.10,2013-01-28 06:27:00,
2013-01-28 01:42:00,28.9,27.0,30.61,SE,143,5.0,11.0,92,0.00,,,0.00,weatherlink.com 1.10,2013-01-28 06:42:00,
2013-01-28 01:57:00,29.0,27.0,30.60,SSE,151,5.0,7.0,92,0.00,,,0.00,weatherlink.com 1.10,2013-01-28 06:57:00,
2013-01-28 02:12:00,28.9,27.0,30.60,South,182,2.0,5.0,92,0.00,,,0.00,weatherlink.com 1.10,2013-01-28 07:12:00,
2013-01-28 02:27:00,29.0,27.0,30.59,South,171,3.0,6.0,93,0.00,,,0.00,weatherlink.com 1.10,2013-01-28 07:27:00,
2013-01-28 02:42:00,29.3,28.0,30.59,SE,143,3.0,7.0,93,0.00,,,0.00,weatherlink.com 1.10,2013-01-28 07:42:00,
2013-01-28 02:57:00,28.9,27.0,30.59,SSE,155,3.0,7.0,93,0.00,,,0.00,weatherlink.com 1.10,2013-01-28 07:57:00,
2013-01-28 03:12:00,28.7,27.0,30.59,SSE,159,3.0,4.0,93,0.00,,,0.00,weatherlink.com 1.10,2013-01-28 08:12:00,
2013-01-28 03:27:00,28.7,27.0,30.59,SSE,155,0.0,3.0,93,0.00,,,0.00,weatherlink.com 1.10,2013-01-28 08:27:00,
2013-01-28 03:42:00,28.6,27.0,30.59,SSE,153,0.0,2.0,93,0.00,,,0.00,weatherlink.com 1.10,2013-01-28 08:42:00,
2013-01-28 03:57:00,28.8,27.0,30.59,SSE,159,4.0,6.0,94,0.00,,,0.00,weatherlink.com 1.10,2013-01-28 08:57:00,
2013-01-28 04:12:00,29.0,28.0,30.59,SSE,163,5.0,7.0,94,0.00,,,0.00,weatherlink.com 1.10,2013-01-28 09:12:00,
2013-01-28 04:27:00,28.7,27.0,30.59,SSE,156,4.0,6.0,93,0.00,,,0.00,weatherlink.com 1.10,2013-01-28 09:27:00,
2013-01-28 04:42:00,28.7,27.0,30.59,South,182,3.0,6.0,94,0.00,,,0.00,weatherlink.com 1.10,2013-01-28 09:42:00,
2013-01-28 04:57:00,29.0,28.0,30.59,SE,136,4.0,5.0,94,0.00,,,0.00,weatherlink.com 1.10,2013-01-28 09:57:00,
2013-01-28 05:12:00,29.2,28.0,30.58,SSE,153,3.0,8.0,94,0.00,,,0.00,weatherlink.com 1.10,2013-01-28 10:12:00,
2013-01-28 05:27:00,29.8,28.0,30.57,SSE,159,3.0,7.0,94,0.00,,,0.00,weatherlink.com 1.10,2013-01-28 10:27:00,
2013-01-28 05:42:00,30.6,29.0,30.57,South,174,0.0,6.0,94,0.00,,,0.00,weatherlink.com 1.10,2013-01-28 10:42:00,
2013-01-28 05:57:00,31.0,29.0,30.58,South,175,3.0,5.0,93,0.00,,,0.00,weatherlink.com 1.10,2013-01-28 10:57:00,
2013-01-28 06:12:00,30.6,29.0,30.59,South,176,3.0,7.0,93,0.00,,,0.00,weatherlink.com 1.10,2013-01-28 11:12:00,
2013-01-28 06:27:00,30.1,28.0,30.59,SE,144,3.0,6.0,93,0.00,,,0.00,weatherlink.com 1.10,2013-01-28 11:27:00,
2013-01-28 06:42:00,29.9,28.0,30.59,NE,48,1.0,5.0,93,0.00,,,0.00,weatherlink.com 1.10,2013-01-28 11:42:00,
2013-01-28 06:57:00,31.2,29.0,30.59,NW,323,4.0,8.0,93,0.00,,,0.00,weatherlink.com 1.10,2013-01-28 11:57:00,
2013-01-28 07:12:00,35.2,34.0,30.60,North,355,2.0,3.0,94,0.00,,,0.00,weatherlink.com 1.10,2013-01-28 12:12:00,
2013-01-28 07:27:00,42.2,39.0,30.61,WSW,255,3.0,8.0,88,0.00,,,0.00,weatherlink.com 1.10,2013-01-28 12:27:00,
2013-01-28 07:42:00,42.8,37.0,30.60,North,355,2.0,5.0,80,0.00,,,0.00,weatherlink.com 1.10,2013-01-28 12:42:00,
2013-01-28 07:59:00,41.5,37.0,30.60,NNE,14,3.0,7.0,83,0.00,,,0.00,weatherlink.com 1.10,2013-01-28 12:59:00,
2013-01-28 08:12:00,43.2,37.0,30.60,North,360,3.0,7.0,79,0.00,,,0.00,weatherlink.com 1.10,2013-01-28 13:12:00,
2013-01-28 08:27:00,43.4,38.0,30.60,WNW,288,8.0,8.0,80,0.01,,,0.01,weatherlink.com 1.10,2013-01-28 13:27:00,
2013-01-28 08:42:00,44.9,39.0,30.59,SSW,202,3.0,7.0,79,0.01,,,0.01,weatherlink.com 1.10,2013-01-28 13:42:00,
2013-01-28 08:57:00,45.5,38.0,30.59,South,175,2.0,7.0,76,0.01,,,0.01,weatherlink.com 1.10,2013-01-28 13:57:00,
2013-01-28 09:12:00,45.1,38.0,30.59,SSE,163,2.0,6.0,77,0.01,,,0.01,weatherlink.com 1.10,2013-01-28 14:12:00,
2013-01-28 09:28:00,46.0,39.0,30.59,SE,126,1.0,7.0,77,0.01,,,0.02,weatherlink.com 1.10,2013-01-28 14:28:00,
2013-01-28 09:44:00,46.7,40.0,30.59,NE,42,0.0,4.0,76,0.02,,,0.03,weatherlink.com 1.10,2013-01-28 14:44:00,
2013-01-28 09:57:00,46.5,40.0,30.58,South,169,2.0,7.0,77,0.05,,,0.06,weatherlink.com 1.10,2013-01-28 14:57:00,
2013-01-28 10:12:00,48.7,41.0,30.58,WSW,240,0.0,5.0,76,0.06,,,0.07,weatherlink.com 1.10,2013-01-28 15:12:00,
2013-01-28 10:28:00,50.0,42.0,30.58,West,268,0.0,2.0,74,0.06,,,0.08,weatherlink.com 1.10,2013-01-28 15:28:00,
2013-01-28 10:43:00,50.9,42.0,30.58,SE,134,3.0,4.0,72,0.06,,,0.10,weatherlink.com 1.10,2013-01-28 15:43:00,
2013-01-28 10:58:00,50.7,42.0,30.57,South,181,1.0,10.0,73,0.05,,,0.11,weatherlink.com 1.10,2013-01-28 15:58:00,
2013-01-28 11:13:00,50.5,41.0,30.57,ESE,113,0.0,6.0,70,0.05,,,0.12,weatherlink.com 1.10,2013-01-28 16:13:00,
2013-01-28 11:28:00,49.5,40.0,30.56,East,98,2.0,5.0,70,0.05,,,0.13,weatherlink.com 1.10,2013-01-28 16:28:00,
2013-01-28 11:43:00,48.5,40.0,30.55,East,82,3.0,8.0,72,0.04,,,0.14,weatherlink.com 1.10,2013-01-28 16:43:00,
2013-01-28 11:59:00,49.5,40.0,30.54,South,173,4.0,9.0,71,0.04,,,0.15,weatherlink.com 1.10,2013-01-28 16:59:00,
2013-01-28 12:13:00,48.7,39.0,30.53,SE,139,3.0,8.0,69,0.04,,,0.16,weatherlink.com 1.10,2013-01-28 17:13:00,
2013-01-28 12:28:00,48.3,40.0,30.51,SE,125,3.0,6.0,72,0.03,,,0.17,weatherlink.com 1.10,2013-01-28 17:28:00,
2013-01-28 12:43:00,48.0,39.0,30.50,SSE,149,3.0,8.0,72,0.04,,,0.18,weatherlink.com 1.10,2013-01-28 17:43:00,
2013-01-28 12:57:00,50.1,40.0,30.49,South,170,4.0,8.0,69,0.04,,,0.19,weatherlink.com 1.10,2013-01-28 17:57:00,
2013-01-28 13:12:00,51.1,40.0,30.48,SSE,161,3.0,8.0,67,0.03,,,0.19,weatherlink.com 1.10,2013-01-28 18:12:00,
2013-01-28 13:27:00,50.4,39.0,30.47,ESE,102,4.0,7.0,66,0.03,,,0.20,weatherlink.com 1.10,2013-01-28 18:27:00,
2013-01-28 13:43:00,49.4,40.0,30.46,SE,139,5.0,8.0,69,0.02,,,0.20,weatherlink.com 1.10,2013-01-28 18:43:00,
2013-01-28 13:58:00,49.8,40.0,30.45,South,169,2.0,8.0,68,0.02,,,0.21,weatherlink.com 1.10,2013-01-28 18:58:00,
2013-01-28 14:13:00,50.9,39.0,30.44,South,188,7.0,10.0,65,0.02,,,0.21,weatherlink.com 1.10,2013-01-28 19:13:00,
2013-01-28 14:28:00,51.1,40.0,30.43,SE,139,4.0,8.0,66,0.01,,,0.21,weatherlink.com 1.10,2013-01-28 19:28:00,
2013-01-28 14:43:00,51.2,40.0,30.43,SE,145,5.0,10.0,66,0.02,,,0.22,weatherlink.com 1.10,2013-01-28 19:43:00,
2013-01-28 14:58:00,51.2,39.0,30.43,SSE,157,3.0,8.0,64,0.01,,,0.22,weatherlink.com 1.10,2013-01-28 19:58:00,
2013-01-28 15:13:00,51.9,40.0,30.43,SE,146,5.0,8.0,65,0.01,,,0.22,weatherlink.com 1.10,2013-01-28 20:13:00,
2013-01-28 15:28:00,51.9,40.0,30.43,South,169,3.0,8.0,65,0.01,,,0.22,weatherlink.com 1.10,2013-01-28 20:28:00,
2013-01-28 15:43:00,51.8,40.0,30.42,SE,144,6.0,8.0,64,0.00,,,0.22,weatherlink.com 1.10,2013-01-28 20:43:00,
2013-01-28 15:59:00,52.2,40.0,30.43,South,182,3.0,7.0,64,0.00,,,0.22,weatherlink.com 1.10,2013-01-28 20:59:00,
2013-01-28 16:14:00,51.9,41.0,30.42,SSE,155,2.0,6.0,66,0.00,,,0.22,weatherlink.com 1.10,2013-01-28 21:14:00,
2013-01-28 16:28:00,51.4,41.0,30.42,SE,144,1.0,6.0,68,0.00,,,0.22,weatherlink.com 1.10,2013-01-28 21:28:00,
2013-01-28 16:44:00,50.5,41.0,30.42,SE,144,5.0,7.0,69,0.00,,,0.22,weatherlink.com 1.10,2013-01-28 21:44:00,
2013-01-28 16:59:00,49.9,41.0,30.42,SE,144,2.0,5.0,71,0.00,,,0.22,weatherlink.com 1.10,2013-01-28 21:59:00,
2013-01-28 17:13:00,48.4,40.0,30.42,South,178,5.0,6.0,74,0.00,,,0.22,weatherlink.com 1.10,2013-01-28 22:13:00,
2013-01-28 17:28:00,47.4,41.0,30.41,SSE,150,3.0,5.0,77,0.00,,,0.22,weatherlink.com 1.10,2013-01-28 22:28:00,
2013-01-28 17:43:00,46.7,40.0,30.43,SSW,194,2.0,4.0,78,0.00,,,0.22,weatherlink.com 1.10,2013-01-28 22:43:00,
2013-01-28 17:58:00,46.5,41.0,30.42,SSW,193,2.0,3.0,80,0.00,,,0.22,weatherlink.com 1.10,2013-01-28 22:58:00,
2013-01-28 18:14:00,46.2,40.0,30.43,SSW,193,0.0,3.0,80,0.00,,,0.22,weatherlink.com 1.10,2013-01-28 23:14:00,
2013-01-28 18:29:00,46.2,40.0,30.42,SSW,193,0.0,3.0,80,0.00,,,0.22,weatherlink.com 1.10,2013-01-28 23:29:00,
2013-01-28 18:43:00,46.0,41.0,30.43,SSW,193,0.0,1.0,81,0.00,,,0.22,weatherlink.com 1.10,2013-01-28 23:43:00,
2013-01-28 18:59:00,45.8,40.0,30.43,SSW,193,0.0,2.0,81,0.00,,,0.22,weatherlink.com 1.10,2013-01-28 23:59:00,
2013-01-28 19:13:00,46.0,41.0,30.42,SSW,193,1.0,3.0,81,0.00,,,0.22,weatherlink.com 1.10,2013-01-29 00:13:00,
2013-01-28 19:29:00,46.0,41.0,30.42,SSW,193,1.0,2.0,81,0.00,,,0.22,weatherlink.com 1.10,2013-01-29 00:29:00,
2013-01-28 19:43:00,46.6,41.0,30.42,South,171,0.0,4.0,81,0.00,,,0.22,weatherlink.com 1.10,2013-01-29 00:43:00,
2013-01-28 19:59:00,46.3,41.0,30.42,South,178,0.0,2.0,81,0.00,,,0.22,weatherlink.com 1.10,2013-01-29 00:59:00,
2013-01-28 20:13:00,45.7,40.0,30.42,NNW,342,4.0,5.0,81,0.00,,,0.22,weatherlink.com 1.10,2013-01-29 01:13:00,
2013-01-28 20:28:00,44.1,40.0,30.41,NNE,22,4.0,7.0,84,0.00,,,0.22,weatherlink.com 1.10,2013-01-29 01:28:00,
2013-01-28 20:43:00,44.0,40.0,30.42,North,355,3.0,8.0,85,0.00,,,0.22,weatherlink.com 1.10,2013-01-29 01:43:00,
2013-01-28 20:58:00,44.3,40.0,30.42,North,355,1.0,6.0,85,0.00,,,0.22,weatherlink.com 1.10,2013-01-29 01:58:00,
2013-01-28 21:13:00,45.0,41.0,30.41,NNW,335,4.0,7.0,85,0.00,,,0.22,weatherlink.com 1.10,2013-01-29 02:13:00,
2013-01-28 21:28:00,45.0,41.0,30.41,North,349,3.0,5.0,86,0.00,,,0.22,weatherlink.com 1.10,2013-01-29 02:28:00,
2013-01-28 21:43:00,44.8,41.0,30.41,NNW,330,3.0,6.0,87,0.00,,,0.22,weatherlink.com 1.10,2013-01-29 02:43:00,
2013-01-28 21:59:00,44.7,41.0,30.40,North,350,3.0,7.0,87,0.00,,,0.22,weatherlink.com 1.10,2013-01-29 02:59:00,
2013-01-28 22:14:00,44.7,41.0,30.40,North,360,5.0,6.0,86,0.00,,,0.22,weatherlink.com 1.10,2013-01-29 03:14:00,
2013-01-28 22:29:00,44.7,41.0,30.39,North,355,4.0,8.0,87,0.00,,,0.22,weatherlink.com 1.10,2013-01-29 03:29:00,
2013-01-28 22:44:00,49.0,43.0,30.39,South,173,4.0,11.0,81,0.00,,,0.22,weatherlink.com 1.10,2013-01-29 03:44:00,
2013-01-28 23:00:00,47.3,42.0,30.38,NNW,347,2.0,9.0,81,0.00,,,0.22,weatherlink.com 1.10,2013-01-29 04:00:00,
2013-01-28 23:14:00,46.0,41.0,30.38,North,355,4.0,5.0,82,0.00,,,0.22,weatherlink.com 1.10,2013-01-29 04:14:00,
2013-01-28 23:29:00,44.5,40.0,30.39,North,360,3.0,6.0,85,0.00,,,0.22,weatherlink.com 1.10,2013-01-29 04:29:00,
2013-01-28 23:44:00,45.8,42.0,30.38,WNW,300,4.0,8.0,85,0.00,,,0.22,weatherlink.com 1.10,2013-01-29 04:44:00,
2013-01-28 23:59:00,48.1,42.0,30.38,West,277,5.0,11.0,79,0.00,,,0.00,weatherlink.com 1.10,2013-01-29 04:59:00,